QTR4U YSSY-OTHH

Flight info

Callsign QTR4U
Flight time N/A
Altitude 34000
Route MARUB7/34R WOL J42 AY T8 WYMER/N0487F340 T8 TEKUP DCT 38S125E 36S120E 35S118E DCT EBARR DCT 28S105E/N0493F360 22S100E DCT POLUM DCT 16S095E 10S090E/N0489F380 DCT RISMI DCT APOVU DCT AKDOB DCT BIBGO/M085F380 L894 DONSA/M085F400 L894 KITAL/N0486F400 P570 EMURU N563 SODEX/N0469F340 N563 UMIBU/N0453F320 P899 MEKRI/N0435F300 P899 TOVOX
Aircraft A35K/H-VGDW/C

Departure

Time 2026-05-01 11:15
Airport Sydney Kingsford Smith International Airport (YSSY)

Arrival

Time N/A
Airport Hamad International Airport (OTHH)
Time Latitude Longitude Altitude Speed Heading
2026-05-01 10:44 -33.94063 151.16384 36 ft 0 kts 43°
2026-05-01 10:54 -33.94079 151.16365 33 ft 4 kts 48°
2026-05-01 10:55 -33.94096 151.16340 32 ft 4 kts 57°
2026-05-01 10:55 -33.94108 151.16311 33 ft 4 kts 78°
2026-05-01 10:55 -33.94108 151.16285 33 ft 4 kts 139°
2026-05-01 10:55 -33.94102 151.16280 34 ft 0 kts 164°
2026-05-01 10:58 -33.94113 151.16284 32 ft 4 kts 163°
2026-05-01 10:58 -33.94149 151.16295 36 ft 6 kts 163°
2026-05-01 10:59 -33.94166 151.16304 36 ft 1 kts 154°
2026-05-01 10:59 -33.94174 151.16322 35 ft 5 kts 104°
2026-05-01 10:59 -33.94167 151.16379 35 ft 10 kts 80°
2026-05-01 10:59 -33.94141 151.16501 36 ft 18 kts 73°
2026-05-01 11:00 -33.94099 151.16681 36 ft 25 kts 74°
2026-05-01 11:00 -33.94051 151.16884 36 ft 25 kts 74°
2026-05-01 11:00 -33.94004 151.17083 35 ft 25 kts 74°
2026-05-01 11:00 -33.93964 151.17253 34 ft 20 kts 74°
2026-05-01 11:01 -33.93955 151.17291 34 ft 1 kts 74°
2026-05-01 11:01 -33.93949 151.17315 33 ft 4 kts 74°
2026-05-01 11:01 -33.93947 151.17323 33 ft 0 kts 74°
2026-05-01 11:02 -33.93935 151.17376 32 ft 11 kts 74°
2026-05-01 11:02 -33.93914 151.17465 33 ft 11 kts 74°
2026-05-01 11:02 -33.93891 151.17550 34 ft 10 kts 61°
2026-05-01 11:02 -33.93837 151.17585 35 ft 9 kts 11°
2026-05-01 11:03 -33.93755 151.17575 35 ft 17 kts 348°
2026-05-01 11:03 -33.93652 151.17592 35 ft 9 kts 46°
2026-05-01 11:03 -33.93649 151.17598 35 ft 4 kts 57°
2026-05-01 11:03 -33.93666 151.17637 35 ft 6 kts 140°
2026-05-01 11:04 -33.93738 151.17681 35 ft 16 kts 164°
2026-05-01 11:04 -33.93841 151.17721 35 ft 16 kts 145°
2026-05-01 11:04 -33.93924 151.17782 35 ft 9 kts 163°
2026-05-01 11:04 -33.93948 151.17790 35 ft 1 kts 165°
2026-05-01 11:05 -33.93961 151.17794 35 ft 5 kts 166°
2026-05-01 11:05 -33.94011 151.17807 34 ft 10 kts 166°
2026-05-01 11:05 -33.94092 151.17831 35 ft 14 kts 168°
2026-05-01 11:05 -33.94186 151.17853 35 ft 14 kts 168°
2026-05-01 11:06 -33.94306 151.17883 36 ft 20 kts 168°
2026-05-01 11:06 -33.94440 151.17911 36 ft 19 kts 183°
2026-05-01 11:06 -33.94567 151.17893 36 ft 19 kts 168°
2026-05-01 11:07 -33.94825 151.17957 36 ft 21 kts 169°
2026-05-01 11:07 -33.94969 151.17996 36 ft 21 kts 167°
2026-05-01 11:07 -33.95080 151.18026 36 ft 0 kts 167°
2026-05-01 11:07 -33.95109 151.18034 36 ft 9 kts 167°
2026-05-01 11:08 -33.95135 151.18042 36 ft 1 kts 167°
2026-05-01 11:08 -33.95151 151.18049 36 ft 3 kts 150°
2026-05-01 11:08 -33.95162 151.18153 36 ft 11 kts 83°
2026-05-01 11:09 -33.95147 151.18247 36 ft 12 kts 78°
2026-05-01 11:09 -33.95122 151.18388 36 ft 20 kts 78°
2026-05-01 11:09 -33.95113 151.18440 36 ft 1 kts 78°
2026-05-01 11:10 -33.95157 151.18587 36 ft 20 kts 135°
2026-05-01 11:10 -33.95279 151.18702 36 ft 22 kts 156°
2026-05-01 11:10 -33.95428 151.18747 35 ft 22 kts 168°
2026-05-01 11:10 -33.95579 151.18787 35 ft 22 kts 167°
2026-05-01 11:11 -33.95734 151.18827 36 ft 24 kts 168°
2026-05-01 11:11 -33.95900 151.18870 36 ft 26 kts 168°
2026-05-01 11:11 -33.96076 151.18916 36 ft 26 kts 167°
2026-05-01 11:11 -33.96249 151.18962 36 ft 25 kts 167°
2026-05-01 11:12 -33.96421 151.19008 35 ft 25 kts 167°
2026-05-01 11:12 -33.96591 151.19053 35 ft 25 kts 167°
2026-05-01 11:12 -33.96759 151.19069 36 ft 24 kts 186°
2026-05-01 11:12 -33.96923 151.19095 36 ft 24 kts 166°
2026-05-01 11:13 -33.97083 151.19138 36 ft 22 kts 163°
2026-05-01 11:13 -33.97120 151.19205 35 ft 10 kts 91°
2026-05-01 11:13 -33.97116 151.19238 35 ft 1 kts 78°
2026-05-01 11:13 -33.97112 151.19261 34 ft 5 kts 78°
2026-05-01 11:14 -33.97100 151.19315 32 ft 9 kts 69°
2026-05-01 11:14 -33.97049 151.19366 31 ft 10 kts 16°
2026-05-01 11:14 -33.96977 151.19354 30 ft 11 kts 345°
2026-05-01 11:14 -33.96761 151.19295 29 ft 67 kts 348°
2026-05-01 11:15 -33.96054 151.19112 34 ft 139 kts 347°
2026-05-01 11:15 -33.94908 151.18815 179 ft 186 kts 348°
2026-05-01 11:15 -33.93679 151.18500 1166 ft 175 kts 352°
2026-05-01 11:15 -33.92431 151.18505 1805 ft 189 kts 23°
2026-05-01 11:16 -33.91549 151.19575 2577 ft 180 kts 69°
2026-05-01 11:16 -33.91625 151.21023 3097 ft 181 kts 115°
2026-05-01 11:16 -33.92455 151.22188 3438 ft 187 kts 127°
2026-05-01 11:16 -33.93103 151.23566 3534 ft 198 kts 108°
2026-05-01 11:17 -33.93500 151.25208 3696 ft 211 kts 96°
2026-05-01 11:17 -33.93659 151.27024 3874 ft 225 kts 90°
2026-05-01 11:17 -33.93699 151.28963 4088 ft 239 kts 88°
2026-05-01 11:17 -33.93684 151.31031 4345 ft 253 kts 86°
2026-05-01 11:18 -33.93640 151.33169 4830 ft 257 kts 86°
2026-05-01 11:18 -33.93583 151.35327 5378 ft 259 kts 85°
2026-05-01 11:18 -33.93518 151.37510 5922 ft 263 kts 85°
2026-05-01 11:18 -33.93449 151.39727 6451 ft 266 kts 85°
2026-05-01 11:19 -33.93376 151.41937 6999 ft 270 kts 84°
2026-05-01 11:19 -33.93306 151.44210 7536 ft 273 kts 86°
2026-05-01 11:19 -33.93541 151.46494 8103 ft 280 kts 105°
2026-05-01 11:19 -33.94555 151.48519 8660 ft 289 kts 133°
2026-05-01 11:20 -33.96250 151.49857 9236 ft 294 kts 154°
2026-05-01 11:20 -33.98145 151.50818 9808 ft 298 kts 158°
2026-05-01 11:20 -34.00217 151.51043 10275 ft 305 kts 191°
2026-05-01 11:20 -34.02162 151.50001 10601 ft 314 kts 219°
2026-05-01 11:21 -34.03728 151.48111 10848 ft 326 kts 230°
2026-05-01 11:21 -34.05244 151.45997 11146 ft 338 kts 230°
2026-05-01 11:21 -34.06802 151.43860 11340 ft 353 kts 229°
2026-05-01 11:21 -34.08491 151.41594 11364 ft 373 kts 228°
2026-05-01 11:22 -34.10283 151.39221 11379 ft 391 kts 228°
2026-05-01 11:22 -34.12146 151.36767 11607 ft 400 kts 228°
2026-05-01 11:22 -34.14033 151.34289 12081 ft 404 kts 227°
2026-05-01 11:22 -34.15941 151.31785 12555 ft 405 kts 228°
2026-05-01 11:23 -34.18171 151.28857 13093 ft 408 kts 228°
2026-05-01 11:23 -34.21987 151.23843 13979 ft 413 kts 228°
2026-05-01 11:23 -34.25901 151.18692 14805 ft 418 kts 228°
2026-05-01 11:23 -34.29858 151.13477 15485 ft 424 kts 227°
2026-05-01 11:24 -34.33863 151.08193 16236 ft 429 kts 227°
2026-05-01 11:24 -34.37912 151.02845 17010 ft 432 kts 228°
2026-05-01 11:24 -34.46087 150.92016 18457 ft 441 kts 228°
2026-05-01 11:25 -34.50242 150.86500 19106 ft 445 kts 228°
2026-05-01 11:25 -34.57928 150.74768 20492 ft 450 kts 240°
2026-05-01 11:25 -34.61008 150.68152 21355 ft 451 kts 242°
2026-05-01 11:26 -34.64024 150.61437 22092 ft 455 kts 243°
2026-05-01 11:26 -34.70224 150.47874 23636 ft 463 kts 242°
2026-05-01 11:26 -34.73382 150.41008 24297 ft 469 kts 242°
2026-05-01 11:27 -34.76573 150.34055 24982 ft 472 kts 242°
2026-05-01 11:27 -34.79785 150.27038 25654 ft 477 kts 243°
2026-05-01 11:27 -34.82974 150.20056 26288 ft 481 kts 243°
2026-05-01 11:27 -34.86233 150.12906 27002 ft 483 kts 243°
2026-05-01 11:28 -34.89496 150.05733 27627 ft 487 kts 243°
2026-05-01 11:28 -34.92788 149.98478 28215 ft 490 kts 243°
2026-05-01 11:28 -34.96104 149.91153 28683 ft 496 kts 243°
2026-05-01 11:29 -35.02664 149.76634 30586 ft 482 kts 242°
2026-05-01 11:29 -35.05888 149.69468 31091 ft 481 kts 242°
2026-05-01 11:29 -35.12291 149.55196 32520 ft 468 kts 242°
2026-05-01 11:30 -35.14185 149.50962 33028 ft 464 kts 242°
2026-05-01 11:30 -35.15709 149.47552 33186 ft 464 kts 242°
2026-05-01 11:30 -35.17257 149.44084 33371 ft 464 kts 243°
2026-05-01 11:30 -35.18800 149.40623 33560 ft 464 kts 243°
2026-05-01 11:31 -35.20343 149.37161 33788 ft 463 kts 243°
2026-05-01 11:31 -35.22305 149.32751 33915 ft 465 kts 243°
2026-05-01 11:31 -35.23851 149.29274 34041 ft 466 kts 243°
2026-05-01 11:31 -35.25396 149.25794 34265 ft 464 kts 243°
2026-05-01 11:32 -35.26938 149.22319 34368 ft 466 kts 243°
2026-05-01 11:32 -35.31036 149.12325 34373 ft 469 kts 248°
2026-05-01 11:33 -35.36162 148.97682 34384 ft 466 kts 247°
2026-05-01 11:33 -35.41396 148.83188 34389 ft 465 kts 247°
2026-05-01 11:34 -35.46684 148.68567 34388 ft 473 kts 247°
2026-05-01 11:34 -35.51995 148.53795 34388 ft 478 kts 247°
2026-05-01 11:35 -35.57345 148.38844 34386 ft 478 kts 248°
2026-05-01 11:35 -35.62679 148.23865 34372 ft 478 kts 248°
2026-05-01 11:36 -35.66881 148.12020 34364 ft 479 kts 248°
2026-05-01 11:36 -35.69765 148.03855 34295 ft 481 kts 248°
2026-05-01 11:37 -35.72411 147.96352 34351 ft 480 kts 248°
2026-05-01 11:37 -35.75066 147.88803 34346 ft 480 kts 248°
2026-05-01 11:38 -35.77722 147.81233 34341 ft 481 kts 248°
2026-05-01 11:38 -35.80362 147.73689 34341 ft 482 kts 248°
2026-05-01 11:39 -35.83001 147.66129 34335 ft 482 kts 249°
2026-05-01 11:39 -35.85653 147.58519 34330 ft 483 kts 249°
2026-05-01 11:40 -35.88288 147.50867 34328 ft 484 kts 249°
2026-05-01 11:40 -35.90900 147.43257 34325 ft 484 kts 249°
2026-05-01 11:41 -35.93521 147.35615 34320 ft 485 kts 249°
2026-05-01 11:42 -35.98519 147.21002 34311 ft 486 kts 249°
2026-05-01 11:42 -36.01142 147.13306 34308 ft 486 kts 249°
2026-05-01 11:43 -36.03746 147.05646 34306 ft 488 kts 250°
2026-05-01 11:43 -36.06344 146.97877 34298 ft 488 kts 252°
2026-05-01 11:44 -36.09161 146.85932 34295 ft 478 kts 257°
2026-05-01 11:44 -36.10870 146.77981 34292 ft 480 kts 257°
2026-05-01 11:45 -36.12570 146.70013 34285 ft 485 kts 257°
2026-05-01 11:45 -36.14302 146.61925 34278 ft 487 kts 257°
2026-05-01 11:46 -36.16037 146.53827 34277 ft 487 kts 257°
2026-05-01 11:46 -36.17767 146.45728 34277 ft 487 kts 257°
2026-05-01 11:47 -36.19478 146.37682 34274 ft 487 kts 257°
2026-05-01 11:47 -36.21194 146.29584 34276 ft 487 kts 258°
2026-05-01 11:48 -36.22874 146.21438 34267 ft 488 kts 261°
2026-05-01 11:48 -36.23094 146.17272 34267 ft 483 kts 277°
2026-05-01 11:48 -36.22417 146.13241 34266 ft 478 kts 292°
2026-05-01 11:49 -36.20892 146.09607 34261 ft 476 kts 307°
2026-05-01 11:49 -36.18633 146.06631 34258 ft 476 kts 322°
2026-05-01 11:49 -36.15798 146.04521 34269 ft 478 kts 336°
2026-05-01 11:49 -36.12646 146.03395 34267 ft 480 kts 348°
2026-05-01 11:50 -36.05989 146.02340 34259 ft 484 kts 352°
2026-05-01 11:50 -35.99520 146.00401 34256 ft 478 kts 330°
2026-05-01 11:51 -35.94099 145.95665 34251 ft 479 kts 319°
2026-05-01 11:51 -35.89665 145.89562 34255 ft 479 kts 303°
2026-05-01 11:52 -35.86979 145.82061 34249 ft 482 kts 285°
2026-05-01 11:52 -35.86368 145.73891 34250 ft 486 kts 268°
2026-05-01 11:53 -35.87738 145.65717 34241 ft 490 kts 255°
2026-05-01 11:53 -35.89945 145.57754 34243 ft 491 kts 253°
2026-05-01 11:54 -35.92263 145.49829 34240 ft 491 kts 253°
2026-05-01 11:54 -35.94516 145.41881 34240 ft 490 kts 254°
2026-05-01 11:55 -35.96699 145.33979 34233 ft 490 kts 254°
2026-05-01 11:55 -35.98882 145.26008 34236 ft 490 kts 254°
2026-05-01 11:56 -36.01058 145.18045 34230 ft 489 kts 254°
2026-05-01 11:56 -36.03226 145.10097 34227 ft 488 kts 254°
2026-05-01 11:57 -36.05022 145.03495 34225 ft 488 kts 254°
2026-05-01 11:57 -36.07541 144.94211 34222 ft 486 kts 254°
2026-05-01 11:58 -36.09669 144.86343 34222 ft 486 kts 254°
2026-05-01 11:59 -36.12872 144.74457 34221 ft 486 kts 255°
2026-05-01 11:59 -36.14997 144.66540 34214 ft 484 kts 255°
2026-05-01 12:00 -36.18155 144.54731 34208 ft 484 kts 255°
2026-05-01 12:01 -36.21314 144.42862 34209 ft 484 kts 256°
2026-05-01 12:01 -36.23416 144.34936 34205 ft 485 kts 256°
2026-05-01 12:02 -36.25515 144.26997 34203 ft 485 kts 256°
2026-05-01 12:02 -36.27597 144.19099 34198 ft 486 kts 256°
2026-05-01 12:03 -36.29692 144.11126 34193 ft 487 kts 256°
2026-05-01 12:03 -36.31787 144.03131 34194 ft 487 kts 256°
2026-05-01 12:04 -36.33878 143.95129 34197 ft 487 kts 256°
2026-05-01 12:04 -36.35947 143.87184 34195 ft 488 kts 256°
2026-05-01 12:05 -36.38026 143.79176 34194 ft 487 kts 256°
2026-05-01 12:05 -36.41137 143.67143 34192 ft 489 kts 256°
2026-05-01 12:06 -36.43209 143.59096 34189 ft 489 kts 256°
2026-05-01 12:06 -36.45262 143.51102 34182 ft 489 kts 256°
2026-05-01 12:07 -36.47323 143.43049 34192 ft 490 kts 256°
2026-05-01 12:07 -36.49383 143.34977 34182 ft 490 kts 256°
2026-05-01 12:08 -36.51440 143.26891 34183 ft 491 kts 256°
2026-05-01 12:08 -36.53491 143.18798 34173 ft 491 kts 256°
2026-05-01 12:09 -36.55523 143.10762 34166 ft 491 kts 256°
2026-05-01 12:09 -36.57564 143.02659 34165 ft 491 kts 256°
2026-05-01 12:10 -36.60612 142.90511 34165 ft 490 kts 256°
2026-05-01 12:11 -36.63632 142.78416 34158 ft 490 kts 256°
2026-05-01 12:11 -36.65647 142.70315 34153 ft 490 kts 257°
2026-05-01 12:12 -36.67657 142.62207 34154 ft 490 kts 257°
2026-05-01 12:12 -36.69661 142.54096 34154 ft 490 kts 257°
2026-05-01 12:13 -36.71658 142.45988 34148 ft 490 kts 257°
2026-05-01 12:13 -36.73638 142.37918 34144 ft 490 kts 257°
2026-05-01 12:14 -36.75626 142.29791 34142 ft 490 kts 257°
2026-05-01 12:14 -36.77611 142.21657 34138 ft 490 kts 257°
2026-05-01 12:15 -36.79585 142.13533 34143 ft 490 kts 257°
2026-05-01 12:15 -36.81544 142.05445 34133 ft 491 kts 257°
2026-05-01 12:16 -36.83513 141.97292 34125 ft 490 kts 257°
2026-05-01 12:16 -36.85474 141.89141 34128 ft 490 kts 257°
2026-05-01 12:17 -36.87432 141.80978 34126 ft 491 kts 257°
2026-05-01 12:17 -36.89374 141.72855 34116 ft 491 kts 257°
2026-05-01 12:18 -36.91322 141.64677 34115 ft 491 kts 257°
2026-05-01 12:18 -36.93265 141.56494 34111 ft 491 kts 257°
2026-05-01 12:19 -36.95204 141.48298 34102 ft 492 kts 257°
2026-05-01 12:19 -36.97127 141.40143 34099 ft 492 kts 257°
2026-05-01 12:20 -36.99059 141.31922 34084 ft 493 kts 258°
2026-05-01 12:20 -37.00984 141.23705 34090 ft 493 kts 258°
2026-05-01 12:21 -37.02905 141.15470 34092 ft 493 kts 258°
2026-05-01 12:21 -37.04825 141.07215 34084 ft 494 kts 258°
2026-05-01 12:22 -37.06415 141.00356 34077 ft 494 kts 258°
2026-05-01 12:22 -37.08632 140.90760 34072 ft 494 kts 258°
2026-05-01 12:23 -37.10537 140.82484 34067 ft 495 kts 258°
2026-05-01 12:23 -37.12441 140.74186 34061 ft 495 kts 258°
2026-05-01 12:24 -37.14017 140.67289 34056 ft 495 kts 258°
2026-05-01 12:24 -37.15913 140.58969 34052 ft 496 kts 258°
2026-05-01 12:25 -37.18743 140.46493 34045 ft 497 kts 258°
2026-05-01 12:26 -37.20618 140.38189 34043 ft 497 kts 258°
2026-05-01 12:26 -37.23440 140.25635 34033 ft 498 kts 259°
2026-05-01 12:27 -37.26245 140.13091 34027 ft 498 kts 259°
2026-05-01 12:28 -37.28349 140.00424 34023 ft 494 kts 265°
2026-05-01 12:29 -37.29971 139.87672 34012 ft 494 kts 266°
2026-05-01 12:29 -37.31574 139.74849 34004 ft 494 kts 266°
2026-05-01 12:30 -37.33167 139.62109 34002 ft 494 kts 266°
2026-05-01 12:31 -37.34230 139.53541 33998 ft 494 kts 266°
2026-05-01 12:31 -37.35280 139.45029 33990 ft 495 kts 266°
2026-05-01 12:32 -37.36327 139.36498 33985 ft 495 kts 266°
2026-05-01 12:32 -37.37890 139.23659 33977 ft 494 kts 266°
2026-05-01 12:33 -37.38915 139.15169 33977 ft 494 kts 266°
2026-05-01 12:33 -37.39942 139.06606 33967 ft 494 kts 266°
2026-05-01 12:34 -37.40957 138.98091 33981 ft 494 kts 267°
2026-05-01 12:34 -37.41973 138.89509 33965 ft 495 kts 267°
2026-05-01 12:35 -37.42976 138.80989 33943 ft 495 kts 267°
2026-05-01 12:35 -37.43981 138.72398 33935 ft 495 kts 267°
2026-05-01 12:36 -37.44976 138.63836 33966 ft 495 kts 267°
2026-05-01 12:36 -37.45969 138.55237 33938 ft 496 kts 267°
2026-05-01 12:37 -37.46958 138.46616 33935 ft 496 kts 267°
2026-05-01 12:37 -37.47936 138.38035 33931 ft 496 kts 267°
2026-05-01 12:38 -37.48908 138.29457 33927 ft 497 kts 268°
2026-05-01 12:38 -37.49876 138.20802 33918 ft 499 kts 268°
2026-05-01 12:39 -37.50835 138.12148 33910 ft 501 kts 268°
2026-05-01 12:39 -37.51798 138.03428 33912 ft 501 kts 268°
2026-05-01 12:40 -37.52747 137.94779 33905 ft 500 kts 268°
2026-05-01 12:40 -37.53697 137.86045 33907 ft 502 kts 268°
2026-05-01 12:41 -37.54639 137.77333 33891 ft 505 kts 269°
2026-05-01 12:41 -37.55578 137.68586 33896 ft 505 kts 269°
2026-05-01 12:42 -37.56517 137.59786 33888 ft 505 kts 269°
2026-05-01 12:42 -37.57444 137.51030 33892 ft 506 kts 269°
2026-05-01 12:43 -37.58370 137.42213 33886 ft 506 kts 269°
2026-05-01 12:43 -37.59284 137.33475 34207 ft 499 kts 269°
2026-05-01 12:44 -37.59737 137.29181 34736 ft 488 kts 269°
2026-05-01 12:44 -37.60178 137.24963 35144 ft 482 kts 269°
2026-05-01 12:44 -37.61035 137.16611 35530 ft 479 kts 269°
2026-05-01 12:45 -37.61876 137.08285 35713 ft 479 kts 269°
2026-05-01 12:45 -37.62719 136.99927 35892 ft 479 kts 269°
2026-05-01 12:46 -37.63553 136.91630 35886 ft 479 kts 269°
2026-05-01 12:46 -37.64388 136.83269 35896 ft 481 kts 269°
2026-05-01 12:47 -37.65217 136.74883 35885 ft 484 kts 269°
2026-05-01 12:47 -37.66052 136.66420 35887 ft 484 kts 269°
2026-05-01 12:48 -37.66876 136.57999 35884 ft 486 kts 269°
2026-05-01 12:48 -37.67699 136.49506 35880 ft 488 kts 269°
2026-05-01 12:49 -37.68516 136.41009 35881 ft 489 kts 270°
2026-05-01 12:49 -37.69329 136.32506 35882 ft 490 kts 269°
2026-05-01 12:50 -37.70142 136.23935 35876 ft 489 kts 270°
2026-05-01 12:50 -37.70939 136.15467 35874 ft 488 kts 270°
2026-05-01 12:51 -37.71737 136.06918 35878 ft 488 kts 270°
2026-05-01 12:52 -37.72913 135.94172 35865 ft 487 kts 270°
2026-05-01 12:52 -37.74076 135.81425 35889 ft 486 kts 270°
2026-05-01 12:53 -37.75218 135.68777 35854 ft 482 kts 270°
2026-05-01 12:54 -37.75971 135.60327 35848 ft 482 kts 270°
2026-05-01 12:54 -37.77084 135.47707 35845 ft 482 kts 270°
2026-05-01 12:55 -37.78188 135.35060 35836 ft 481 kts 270°
2026-05-01 12:56 -37.78911 135.26689 35834 ft 481 kts 270°
2026-05-01 12:56 -37.79630 135.18317 35832 ft 473 kts 271°
2026-05-01 12:57 -37.80333 135.10084 35852 ft 470 kts 271°
2026-05-01 12:57 -37.81363 134.97816 35824 ft 471 kts 270°
2026-05-01 12:58 -37.82242 134.89555 35819 ft 473 kts 269°
2026-05-01 12:59 -37.83661 134.77232 35815 ft 472 kts 269°
2026-05-01 12:59 -37.85014 134.64881 35812 ft 473 kts 269°
2026-05-01 13:00 -37.86337 134.52514 35813 ft 473 kts 270°
2026-05-01 13:01 -37.87647 134.40156 35812 ft 473 kts 270°
2026-05-01 13:02 -37.88948 134.27757 35820 ft 475 kts 270°
2026-05-01 13:07 -37.98084 133.36861 35778 ft 472 kts 271°
2026-05-01 13:08 -37.98874 133.28638 35765 ft 473 kts 271°
2026-05-01 13:08 -37.99667 133.20325 35767 ft 473 kts 271°
2026-05-01 13:09 -38.00451 133.12052 35757 ft 473 kts 271°
2026-05-01 13:09 -38.01229 133.03781 35755 ft 474 kts 271°
2026-05-01 13:10 -38.02005 132.95468 35751 ft 473 kts 271°
2026-05-01 13:10 -38.02769 132.87216 35751 ft 473 kts 271°
2026-05-01 13:11 -38.03533 132.78894 35749 ft 473 kts 271°
2026-05-01 13:11 -38.04286 132.70631 35760 ft 473 kts 271°
2026-05-01 13:12 -38.04911 132.63717 35744 ft 474 kts 272°
2026-05-01 13:12 -38.05780 132.54026 35736 ft 475 kts 272°
2026-05-01 13:13 -38.06398 132.47088 35735 ft 475 kts 272°
2026-05-01 13:13 -38.07136 132.38736 35733 ft 474 kts 272°
2026-05-01 13:14 -38.07862 132.30446 35734 ft 474 kts 272°
2026-05-01 13:14 -38.08588 132.22093 35730 ft 475 kts 272°
2026-05-01 13:15 -38.09304 132.13786 35730 ft 475 kts 272°
2026-05-01 13:15 -38.10017 132.05432 35735 ft 475 kts 272°
2026-05-01 13:16 -38.10724 131.97094 35736 ft 475 kts 271°
2026-05-01 13:16 -38.11422 131.88768 35726 ft 476 kts 271°
2026-05-01 13:17 -38.12805 131.72103 35727 ft 476 kts 271°
2026-05-01 13:18 -38.13829 131.59571 35735 ft 476 kts 272°
2026-05-01 13:18 -38.14505 131.51195 35738 ft 476 kts 272°
2026-05-01 13:19 -38.15177 131.42809 35727 ft 475 kts 272°
2026-05-01 13:20 -38.16167 131.30295 35760 ft 475 kts 272°
2026-05-01 13:20 -38.16822 131.21925 35724 ft 475 kts 272°
2026-05-01 13:21 -38.17789 131.09412 35727 ft 475 kts 272°
2026-05-01 13:21 -38.18425 131.01094 35730 ft 475 kts 272°
2026-05-01 13:22 -38.19060 130.92703 35749 ft 476 kts 272°
2026-05-01 13:22 -38.19685 130.84349 35732 ft 478 kts 272°
2026-05-01 13:23 -38.20312 130.75910 35730 ft 478 kts 272°
2026-05-01 13:23 -38.20931 130.67511 35736 ft 478 kts 272°
2026-05-01 13:24 -38.21545 130.59084 35758 ft 478 kts 272°
2026-05-01 13:25 -38.22451 130.46447 35750 ft 480 kts 272°
2026-05-01 13:25 -38.23053 130.37960 35754 ft 481 kts 272°
2026-05-01 13:26 -38.23646 130.29503 35753 ft 483 kts 272°
2026-05-01 13:26 -38.24237 130.21007 35768 ft 484 kts 272°
2026-05-01 13:27 -38.24829 130.12413 35764 ft 486 kts 272°
2026-05-01 13:27 -38.25578 129.99563 35776 ft 481 kts 278°
2026-05-01 13:28 -38.25299 129.86878 35808 ft 479 kts 278°
2026-05-01 13:29 -38.24729 129.69835 35786 ft 483 kts 279°
2026-05-01 13:31 -38.23869 129.44264 35805 ft 483 kts 279°
2026-05-01 13:32 -38.23110 129.22981 35807 ft 482 kts 278°
2026-05-01 13:33 -38.22312 129.01675 35816 ft 482 kts 278°
2026-05-01 13:34 -38.21641 128.84574 35828 ft 484 kts 278°
2026-05-01 13:35 -38.21125 128.71753 35835 ft 484 kts 278°
2026-05-01 13:36 -38.20594 128.58929 35849 ft 485 kts 277°
2026-05-01 13:36 -38.20045 128.46058 35844 ft 487 kts 277°
2026-05-01 13:37 -38.19670 128.37428 35848 ft 487 kts 277°
2026-05-01 13:37 -38.19291 128.28850 35848 ft 487 kts 277°
2026-05-01 13:38 -38.18707 128.15915 35852 ft 488 kts 277°
2026-05-01 13:39 -38.18310 128.07323 35853 ft 490 kts 276°
2026-05-01 13:39 -38.17905 127.98654 35860 ft 490 kts 276°
2026-05-01 13:40 -38.17496 127.90029 35858 ft 491 kts 276°
2026-05-01 13:40 -38.17077 127.81344 35856 ft 492 kts 276°
2026-05-01 13:41 -38.16653 127.72688 35858 ft 492 kts 276°
2026-05-01 13:41 -38.16218 127.63975 35863 ft 493 kts 276°
2026-05-01 13:42 -38.15781 127.55305 35859 ft 494 kts 276°
2026-05-01 13:42 -38.15334 127.46577 35871 ft 494 kts 276°
2026-05-01 13:43 -38.14883 127.37908 35862 ft 494 kts 276°
2026-05-01 13:43 -38.14422 127.29160 35868 ft 494 kts 275°
2026-05-01 13:44 -38.13957 127.20476 35869 ft 494 kts 275°
2026-05-01 13:44 -38.13486 127.11765 35882 ft 492 kts 276°
2026-05-01 13:45 -38.13007 127.03065 35886 ft 493 kts 275°
2026-05-01 13:45 -38.12527 126.94431 35874 ft 493 kts 275°
2026-05-01 13:46 -38.12035 126.85719 35896 ft 494 kts 275°
2026-05-01 13:46 -38.11539 126.77040 35900 ft 494 kts 275°
2026-05-01 13:47 -38.11030 126.68307 35901 ft 494 kts 274°
2026-05-01 13:47 -38.10522 126.59638 35891 ft 496 kts 274°
2026-05-01 13:48 -38.10005 126.50916 35896 ft 494 kts 274°
2026-05-01 13:48 -38.09481 126.42241 35902 ft 495 kts 274°
2026-05-01 13:49 -38.08950 126.33517 35904 ft 495 kts 273°
2026-05-01 13:49 -38.08416 126.24855 35923 ft 493 kts 273°
2026-05-01 13:50 -38.07872 126.16141 35910 ft 495 kts 272°
2026-05-01 13:50 -38.07319 126.07404 35903 ft 495 kts 272°
2026-05-01 13:51 -38.06767 125.98729 35911 ft 495 kts 273°
2026-05-01 13:51 -38.06204 125.90012 35922 ft 495 kts 272°
2026-05-01 13:52 -38.05637 125.81341 35931 ft 494 kts 272°
2026-05-01 13:52 -38.05058 125.72607 35936 ft 495 kts 272°
2026-05-01 13:53 -38.04476 125.63926 35934 ft 496 kts 272°
2026-05-01 13:53 -38.03594 125.50872 35931 ft 497 kts 272°
2026-05-01 13:54 -38.02990 125.42110 35939 ft 496 kts 272°
2026-05-01 13:54 -38.02389 125.33446 35950 ft 496 kts 272°
2026-05-01 13:55 -38.01774 125.24701 35942 ft 496 kts 272°
2026-05-01 13:55 -38.01159 125.16011 35956 ft 496 kts 272°
2026-05-01 13:56 -38.00532 125.07277 35956 ft 496 kts 272°
2026-05-01 13:56 -37.99283 124.98694 35953 ft 502 kts 285°
2026-05-01 13:57 -37.97054 124.91847 35963 ft 506 kts 291°
2026-05-01 13:57 -37.93564 124.82419 35971 ft 507 kts 292°
2026-05-01 13:58 -37.90520 124.74357 35971 ft 507 kts 292°
2026-05-01 13:58 -37.87502 124.66313 35974 ft 508 kts 291°
2026-05-01 13:59 -37.84474 124.58211 35980 ft 509 kts 291°
2026-05-01 13:59 -37.81957 124.51482 35988 ft 509 kts 291°
2026-05-01 14:00 -37.78919 124.43387 35984 ft 509 kts 291°
2026-05-01 14:00 -37.75896 124.35351 35991 ft 508 kts 291°
2026-05-01 14:01 -37.72852 124.27283 35997 ft 508 kts 291°
2026-05-01 14:01 -37.69811 124.19246 36004 ft 508 kts 291°
2026-05-01 14:02 -37.66745 124.11161 35999 ft 508 kts 291°
2026-05-01 14:02 -37.63701 124.03153 35995 ft 508 kts 291°
2026-05-01 14:03 -37.60631 123.95099 35997 ft 508 kts 291°
2026-05-01 14:03 -37.57571 123.87092 36015 ft 508 kts 290°
2026-05-01 14:04 -37.54493 123.79060 36021 ft 509 kts 290°
2026-05-01 14:04 -37.51418 123.71057 36021 ft 509 kts 290°
2026-05-01 14:05 -37.48326 123.63032 36021 ft 509 kts 290°
2026-05-01 14:05 -37.45244 123.55052 36023 ft 509 kts 290°
2026-05-01 14:06 -37.42138 123.47026 36031 ft 508 kts 290°
2026-05-01 14:06 -37.39038 123.39040 36029 ft 508 kts 290°
2026-05-01 14:07 -37.35943 123.31086 36034 ft 508 kts 290°
2026-05-01 14:08 -37.31259 123.19090 36035 ft 508 kts 290°
2026-05-01 14:08 -37.28152 123.11161 36045 ft 509 kts 290°
2026-05-01 14:09 -37.25017 123.03173 36054 ft 509 kts 290°
2026-05-01 14:09 -37.21887 122.95221 36053 ft 509 kts 290°
2026-05-01 14:10 -37.18741 122.87252 36044 ft 508 kts 289°
2026-05-01 14:10 -37.15592 122.79294 36065 ft 510 kts 289°
2026-05-01 14:11 -37.12450 122.71369 36066 ft 510 kts 290°
2026-05-01 14:11 -37.07714 122.59467 36067 ft 509 kts 289°
2026-05-01 14:12 -37.04535 122.51502 36070 ft 510 kts 289°
2026-05-01 14:12 -37.01353 122.43546 36061 ft 510 kts 289°
2026-05-01 14:13 -36.98707 122.36950 36081 ft 510 kts 289°
2026-05-01 14:13 -36.94994 122.27719 36096 ft 510 kts 289°
2026-05-01 14:14 -36.91789 122.19768 36077 ft 511 kts 289°
2026-05-01 14:14 -36.88598 122.11871 36096 ft 511 kts 289°
2026-05-01 14:15 -36.85387 122.03949 36087 ft 511 kts 289°
2026-05-01 14:15 -36.82186 121.96065 36106 ft 512 kts 289°
2026-05-01 14:16 -36.78960 121.88140 36106 ft 512 kts 289°
2026-05-01 14:16 -36.75724 121.80213 36112 ft 511 kts 289°
2026-05-01 14:17 -36.72501 121.72338 36120 ft 512 kts 288°
2026-05-01 14:17 -36.69249 121.64408 36117 ft 512 kts 288°
2026-05-01 14:18 -36.65998 121.56501 36127 ft 512 kts 289°
2026-05-01 14:18 -36.63304 121.49967 36125 ft 511 kts 288°
2026-05-01 14:19 -36.59506 121.40774 36137 ft 512 kts 288°
2026-05-01 14:19 -36.56237 121.32878 36138 ft 512 kts 288°
2026-05-01 14:20 -36.51348 121.21113 36133 ft 512 kts 288°
2026-05-01 14:21 -36.48075 121.13258 36148 ft 512 kts 288°
2026-05-01 14:21 -36.44783 121.05377 36151 ft 512 kts 288°
2026-05-01 14:22 -36.39861 120.93630 36141 ft 512 kts 288°
2026-05-01 14:22 -36.36572 120.85800 36156 ft 514 kts 288°
2026-05-01 14:23 -36.33255 120.77924 36156 ft 514 kts 288°
2026-05-01 14:24 -36.26939 120.62987 36159 ft 514 kts 288°
2026-05-01 14:24 -36.23618 120.55158 36169 ft 513 kts 288°
2026-05-01 14:25 -36.20291 120.47334 36178 ft 513 kts 288°
2026-05-01 14:25 -36.16960 120.39517 36152 ft 513 kts 288°
2026-05-01 14:26 -36.11971 120.27845 36187 ft 514 kts 288°
2026-05-01 14:27 -36.08624 120.20039 36186 ft 514 kts 288°
2026-05-01 14:27 -36.05270 120.12235 36190 ft 514 kts 288°
2026-05-01 14:28 -36.00250 120.00587 36190 ft 514 kts 288°
2026-05-01 14:28 -35.96717 119.92888 36200 ft 518 kts 291°
2026-05-01 14:29 -35.92939 119.85306 36200 ft 519 kts 292°
2026-05-01 14:30 -35.85416 119.70122 36211 ft 518 kts 291°
2026-05-01 14:31 -35.79858 119.58792 36215 ft 517 kts 291°
2026-05-01 14:31 -35.76123 119.51188 36198 ft 520 kts 291°
2026-05-01 14:32 -35.72360 119.43544 36217 ft 525 kts 291°
2026-05-01 14:32 -35.68553 119.35838 36224 ft 528 kts 292°
2026-05-01 14:33 -35.64751 119.28169 36224 ft 528 kts 292°
2026-05-01 14:33 -35.60932 119.20496 36230 ft 526 kts 291°
2026-05-01 14:34 -35.57115 119.12819 36230 ft 526 kts 292°
2026-05-01 14:34 -35.53297 119.05164 36233 ft 525 kts 292°
2026-05-01 14:35 -35.49478 118.97521 36238 ft 525 kts 292°
2026-05-01 14:35 -35.45676 118.89930 36241 ft 527 kts 292°
2026-05-01 14:36 -35.41822 118.82241 36238 ft 531 kts 292°
2026-05-01 14:36 -35.37938 118.74518 36244 ft 533 kts 292°
2026-05-01 14:37 -35.34031 118.66772 36239 ft 535 kts 292°
2026-05-01 14:37 -35.30136 118.59068 36224 ft 537 kts 292°
2026-05-01 14:38 -35.26200 118.51297 36256 ft 538 kts 292°
2026-05-01 14:38 -35.22251 118.43519 36234 ft 538 kts 292°
2026-05-01 14:39 -35.18295 118.35744 36224 ft 538 kts 293°
2026-05-01 14:39 -35.14361 118.28028 36255 ft 539 kts 293°
2026-05-01 14:40 -35.10389 118.20255 36264 ft 539 kts 293°
2026-05-01 14:40 -35.06413 118.12494 36266 ft 539 kts 293°
2026-05-01 14:41 -35.02430 118.04734 36243 ft 539 kts 293°
2026-05-01 14:41 -34.98490 117.97010 36270 ft 539 kts 291°
2026-05-01 14:42 -34.94903 117.89037 36272 ft 535 kts 289°
2026-05-01 14:42 -34.91437 117.81016 36279 ft 534 kts 289°
2026-05-01 14:43 -34.87913 117.73024 36279 ft 536 kts 289°
2026-05-01 14:43 -34.84335 117.65050 36284 ft 537 kts 290°
2026-05-01 14:44 -34.80765 117.57153 36286 ft 536 kts 290°
2026-05-01 14:44 -34.75371 117.45243 36277 ft 536 kts 290°
2026-05-01 14:45 -34.69962 117.33325 36303 ft 537 kts 290°
2026-05-01 14:46 -34.66345 117.25383 36301 ft 537 kts 290°
2026-05-01 14:46 -34.60935 117.13540 36295 ft 537 kts 291°
2026-05-01 14:47 -34.57301 117.05605 36309 ft 538 kts 291°
2026-05-01 14:48 -34.51845 116.93728 36317 ft 537 kts 291°
2026-05-01 14:48 -34.46413 116.81942 36314 ft 536 kts 291°
2026-05-01 14:49 -34.39168 116.66293 36332 ft 532 kts 291°
2026-05-01 14:50 -34.31905 116.50656 36329 ft 533 kts 292°
2026-05-01 14:51 -34.26487 116.39053 36331 ft 528 kts 292°
2026-05-01 14:52 -34.21058 116.27451 36333 ft 529 kts 292°
2026-05-01 14:53 -34.15643 116.15918 36332 ft 529 kts 292°
2026-05-01 14:53 -34.12003 116.08189 36343 ft 531 kts 292°
2026-05-01 14:54 -34.08340 116.00425 36338 ft 533 kts 293°
2026-05-01 14:54 -34.04664 115.92655 36333 ft 533 kts 293°
2026-05-01 14:55 -34.00985 115.84896 36340 ft 533 kts 293°
2026-05-01 14:55 -33.97321 115.77186 36341 ft 534 kts 293°
2026-05-01 14:56 -33.93627 115.69429 36344 ft 534 kts 294°
2026-05-01 14:56 -33.89929 115.61679 36336 ft 533 kts 294°
2026-05-01 14:57 -33.86233 115.53953 36346 ft 533 kts 294°
2026-05-01 14:57 -33.80704 115.42423 36346 ft 533 kts 294°
2026-05-01 14:58 -33.76995 115.34709 36333 ft 533 kts 294°
2026-05-01 14:58 -33.73286 115.27011 36357 ft 532 kts 295°
2026-05-01 14:59 -33.69576 115.19328 36340 ft 531 kts 295°
2026-05-01 14:59 -33.65899 115.11734 36351 ft 529 kts 295°
2026-05-01 15:00 -33.60355 115.00305 36327 ft 528 kts 295°
2026-05-01 15:01 -33.56657 114.92701 36347 ft 528 kts 295°
2026-05-01 15:01 -33.53119 114.85444 36344 ft 529 kts 295°
2026-05-01 15:02 -33.49388 114.77809 36345 ft 530 kts 295°
2026-05-01 15:02 -33.45667 114.70208 36342 ft 530 kts 295°
2026-05-01 15:03 -33.41936 114.62606 36337 ft 526 kts 295°
2026-05-01 15:03 -33.38250 114.55114 36342 ft 524 kts 295°
2026-05-01 15:04 -33.34534 114.47563 36341 ft 527 kts 295°
2026-05-01 15:04 -33.30795 114.39985 36335 ft 528 kts 296°
2026-05-01 15:05 -33.27074 114.32463 36344 ft 527 kts 296°
2026-05-01 15:05 -33.23341 114.24935 36343 ft 526 kts 296°
2026-05-01 15:06 -33.19592 114.17390 36344 ft 528 kts 296°
2026-05-01 15:06 -33.15850 114.09870 36343 ft 529 kts 296°
2026-05-01 15:07 -33.12071 114.02289 36340 ft 529 kts 297°
2026-05-01 15:07 -33.08317 113.94781 36342 ft 529 kts 297°
2026-05-01 15:08 -33.04530 113.87225 36340 ft 528 kts 297°
2026-05-01 15:08 -33.00765 113.79725 36342 ft 528 kts 297°
2026-05-01 15:09 -32.97002 113.72240 36348 ft 528 kts 297°
2026-05-01 15:09 -32.93216 113.64724 36346 ft 528 kts 297°
2026-05-01 15:10 -32.89438 113.57244 36351 ft 527 kts 297°
2026-05-01 15:10 -32.83770 113.46052 36354 ft 525 kts 297°
2026-05-01 15:11 -32.78126 113.34933 36358 ft 525 kts 298°
2026-05-01 15:12 -32.74354 113.27525 36355 ft 526 kts 298°
2026-05-01 15:12 -32.68673 113.16394 36354 ft 524 kts 298°
2026-05-01 15:14 -32.59223 112.97947 36354 ft 524 kts 298°
2026-05-01 15:14 -32.53537 112.86897 36357 ft 523 kts 298°
2026-05-01 15:15 -32.45949 112.72195 36357 ft 523 kts 299°
2026-05-01 15:16 -32.38366 112.57563 36362 ft 523 kts 299°
2026-05-01 15:18 -32.28859 112.39297 36366 ft 521 kts 299°
2026-05-01 15:19 -32.21262 112.24703 36373 ft 521 kts 299°
2026-05-01 15:19 -32.15718 112.13715 36404 ft 519 kts 298°
2026-05-01 15:20 -32.10963 112.03860 36464 ft 517 kts 297°
2026-05-01 15:21 -32.06945 111.95199 36500 ft 516 kts 296°
2026-05-01 15:21 -32.04136 111.88972 36529 ft 516 kts 296°
2026-05-01 15:22 -31.99223 111.77721 36521 ft 515 kts 295°
2026-05-01 15:22 -31.95975 111.70151 36511 ft 516 kts 294°
2026-05-01 15:23 -31.92816 111.62540 36486 ft 516 kts 294°
2026-05-01 15:23 -31.89695 111.54986 36453 ft 516 kts 294°